Location: DARK SKY Beskydy - Park tmavé oblohy, www.darkskybeskydy.cz
(49.4926°N, 18.5016°E)
Time: 02:55:01
(UTC+02:00)

A-11 Canister half - Pass Details

Date: 02 March 2024
Orbit: 1513 x 1686 km, 47.2° (Epoch: 24 April)

Event Time Altitude Azimuth Distance (km) Brightness Sun altitude
Rises 01:11:36 0° 243° (WSW) 4,931 - -44.9°
Reaches altitude 10° 01:14:47 10° 241° (WSW) 3,947 - -44.6°
Maximum altitude 01:24:50 68° 161° (SSE) 1,779 - -43.9°
Exits shadow 01:28:39 43° 95° (E) 2,224 9.8 -43.5°
Drops below altitude 10° 01:34:45 10° 82° (E) 3,891 11.4 -43.0°
Sets 01:37:52 0° 80° (E) 4,859 12.1 -42.7°
